TimeCDT,TemperatureF,Dew PointF,Humidity,Sea Level PressureIn,VisibilityMPH,Wind Direction,Wind SpeedMPH,Gust SpeedMPH,PrecipitationIn,Events,Conditions,WindDirDegrees,DateUTC
12:53 AM,23.0,16.0,74,30.25,10.0,NNW,10.4,-,N/A,,Overcast,340,2013-03-24 05:53:00
1:53 AM,19.9,14.0,78,30.26,10.0,NW,9.2,-,N/A,,Scattered Clouds,320,2013-03-24 06:53:00
2:53 AM,19.0,12.9,77,30.27,10.0,NW,10.4,-,N/A,,Clear,310,2013-03-24 07:53:00
3:53 AM,18.0,12.0,78,30.27,10.0,WNW,8.1,-,N/A,,Clear,290,2013-03-24 08:53:00
4:53 AM,15.1,10.0,80,30.26,10.0,WNW,9.2,-,N/A,,Clear,300,2013-03-24 09:53:00
5:53 AM,14.0,9.0,80,30.26,10.0,WNW,8.1,-,N/A,,Clear,290,2013-03-24 10:53:00
6:53 AM,12.0,8.1,84,30.28,10.0,WNW,8.1,-,N/A,,Clear,290,2013-03-24 11:53:00
7:53 AM,10.0,6.1,84,30.30,10.0,West,8.1,-,N/A,,Clear,280,2013-03-24 12:53:00
8:53 AM,12.0,8.1,84,30.30,10.0,WNW,10.4,-,N/A,,Clear,300,2013-03-24 13:53:00
9:53 AM,17.1,10.0,74,30.29,10.0,NW,11.5,-,N/A,,Clear,310,2013-03-24 14:53:00
10:53 AM,19.9,12.0,71,30.28,10.0,WNW,9.2,-,N/A,,Clear,300,2013-03-24 15:53:00
11:53 AM,24.1,14.0,65,30.27,10.0,WNW,10.4,-,N/A,,Clear,300,2013-03-24 16:53:00
12:53 PM,26.1,16.0,66,30.26,10.0,WNW,15.0,-,N/A,,Partly Cloudy,290,2013-03-24 17:53:00
1:53 PM,26.1,18.0,71,30.26,10.0,WNW,15.0,-,N/A,,Mostly Cloudy,290,2013-03-24 18:53:00
2:43 PM,26.6,17.6,69,30.14,10.0,West,17.3,-,N/A,,Scattered Clouds,280,2013-03-24 19:43:00
2:53 PM,27.0,18.0,69,30.24,10.0,WNW,15.0,-,N/A,,Partly Cloudy,290,2013-03-24 19:53:00
3:53 PM,30.9,19.0,61,30.21,10.0,West,15.0,-,N/A,,Overcast,280,2013-03-24 20:53:00
4:53 PM,32.0,18.0,56,30.20,10.0,NNW,13.8,-,N/A,,Overcast,340,2013-03-24 21:53:00
5:53 PM,28.9,21.9,75,30.22,6.0,WNW,16.1,20.7,0.00,Snow,Light Snow,300,2013-03-24 22:53:00
6:53 PM,30.2,19.4,64,30.12,10.0,NW,21.9,29.9,N/A,,Overcast,320,2013-03-24 23:53:00
7:53 PM,28.0,17.1,63,30.25,10.0,WNW,15.0,-,N/A,,Scattered Clouds,300,2013-03-25 00:53:00
8:53 PM,26.1,15.1,63,30.28,10.0,NNW,18.4,-,N/A,,Clear,330,2013-03-25 01:53:00
9:53 PM,23.0,12.0,63,30.31,10.0,NNW,11.5,-,N/A,,Clear,340,2013-03-25 02:53:00
10:53 PM,19.9,10.9,68,30.34,10.0,NW,12.7,-,N/A,,Clear,310,2013-03-25 03:53:00
11:53 PM,19.0,10.0,68,30.34,10.0,NW,11.5,-,N/A,,Clear,310,2013-03-25 04:53:00